SCP
0 -0 -0 -0 0 0 -0 0 0 0 -0 -0 0 0 0 0 0 0 0 -0 0 -0 0 0 -0 0 0 0 -0 -0 -0 -0 0 0 0 0 0 0 0 0 -0 0 0
-0 -0 -0 -0 -0 -0 -0 0 0 -0 -0 -0 0 0 0 0 0 0 0 0 0 0 -0 -0 0 0 0 -0 -0 -0 -0 -0 -0 0 0 0 0 0 0 0 0 0 0
-0 -0 -0 -0 -0 -0 -0 0 0 0 0 0 0 0 0 0 0 0 0 0 0 0 -0 -0 0 0 0 0 -0 -0 -0 -0 0 -0 -0 0 0 0 0 0 0 0 0
-0 -0 -0 -0 -0 0 -0 -0 0 -0 0 0 0 0 0 0 0 0 0 0 0 0 -0 0 0 0 -0 0 0 -0 -0 -0 -0 -0 0 -0 0 0 0 0 0 0 0
-0 -0 -0 -0 -0 -0 -0 -0 -0 0 0 0 0 0 0 0 0 0 0 0 0 0 0 0 0 0 0 0 -0 -0 -0 -0 0 0 0 -0 -0 0 0 0 0 0 0
-0 -0 0 0 0 -0 -0 -0 -0 0 0 0 0 0 0 0 0 0 0 0 0 0 0 0 0 0 0 0 -0 -0 -0 -0 0 -0 0 -0 -0 -0 0 0 -0 -0 0
0 -0 -0 -0 -0 0 -0 -0 -0 -0 0 -0 0 -0 -0 0 0 0 0 0 0 0 0 0 -0 0 -0 -0 -0 -0 -0 -0 0 0 -0 0 -0 -0 -0 -0 -0 -0 0
0 0 -0 0 -0 0 -0 0 -0 0 0 0 0 -0 0 0 0 0 0 0 0 0 0 0 -0 -0 -0 -0 -0 -0 0 0 -0 0 0 0 -0 -0 -0 -0 -0 0 0
0 0 0 -0 0 0 0 0 0 -0 0 0 0 0 0 0 0 0 0 0 0 0 0 -0 -0 -0 0 0 -0 0 0 0 0 0 0 0 -0 -0 0 -0 0 -0 -0
-0 0 0 -0 0 0 0 0 0 0 0 0 0 0 0 0 0 0 0 0 0 0 0 -0 0 0 0 0 0 -0 -0 0 0 0 0 0 0 -0 0 -0 0 0 0
-0 0 0 0 -0 -0 0 0 0 0 -0 0 0 0 0 0 0 0 0 0 0 0 0 0 0 0 0 -0 0 0 0 0 0 0 0 0 0 0 -0 0 0 0 0
-0 0 0 0 0 -0 0 0 0 0 0 0 0 0 0 0 0 0 0 0 0 0 0 0 0 0 0 0 0 0 0 0 0 0 0 0 0 0 0 0 0 0 0
0 0 0 0 0 0 0 0 0 0 0 0 1 0 0 0 0 0 0 0 0 0 0 0 0 0 0 0 0 0 0 0 0 0 0 0 0 0 0 0 0 0 0
0 0 0 0 0 0 0 0 0 1 0 0 1 0 0 0 0 0 0 0 0 0 0 0 0 0 0 0 0 0 0 0 0 0 0 0 0 0 0 0 0 0 0
0 0 0 0 0 0 0 0 1 1 1 1 1 1 1 1 1 0 0 0 0 0 0 0 0 0 0 0 0 0 0 0 0 0 0 0 0 0 0 0 1 0 0
0 0 0 0 0 0 0 0 0 1 0 0 0 0 0 0 0 1 1 0 0 1 0 0 1 0 0 0 0 0 0 0 0 0 0 0 0 0 0 0 0 0 0
0 0 0 0 0 0 0 0 0 0 0 0 0 0 0 0 0 0 0 0 0 1 0 0 0 0 0 0 0 0 0 0 0 0 0 0 0 0 0 0 0 0 0
0 0 0 0 0 0 0 0 0 0 0 0 0 0 0 0 0 0 0 0 0 0 0 0 0 0 0 0 0 0 0 0 0 0 0 0 0 0 0 0 0 0 0
0 0 0 0 0 0 0 0 0 0 0 0 0 0 0 0 0 0 0 0 0 0 0 0 0 0 0 0 0 0 0 0 0 0 0 0 0 0 0 0 0 0 0
0 0 0 0 0 0 0 0 0 0 0 0 0 0 0 0 0 0 0 0 0 0 0 0 0 0 0 0 0 0 0 0 0 0 0 0 0 0 0 0 0 0 0
0 0 0 0 -0 0 0 0 0 0 0 0 0 0 0 0 0 0 0 0 0 0 0 0 0 0 0 0 0 0 0 0 0 0 0 0 0 0 0 0 0 0 0
0 0 -0 0 0 -0 -0 -0 -0 -0 0 0 0 0 0 0 0 0 0 0 0 0 0 0 0 0 0 0 0 0 0 0 0 0 0 0 0 0 0 0 0 0 0
0 -0 0 0 0 -0 -0 0 0 0 0 0 0 0 0 0 0 0 0 0 0 0 0 0 0 0 0 0 0 0 0 0 0 0 0 0 0 0 0 0 0 0 0
0 0 0 0 0 0 0 0 0 0 0 0 0 0 0 0 0 0 0 0 0 0 0 0 0 0 0 0 0 0 0 0 0 0 0 0 0 0 0 0 0 0 0
0 0 0 0 0 0 0 0 0 0 0 0 0 0 0 0 0 0 0 0 0 0 0 0 0 0 0 0 0 0 0 0 0 0 0 0 0 0 0 0 0 0 0
-0 0 0 0 0 -0 -0 0 0 0 -0 0 0 0 0 0 0 0 0 0 0 0 0 0 0 0 0 0 0 0 0 0 0 0 0 0 0 0 0 0 0 0 0
Wind_Speed_500mb
26 27 29 33 36 38 39 37 34 30 29 26 24 23 19 18 11 11 3 6 7 4 6 11 6 11 10 9 4 9 16 15 17 14 10 9 7 9 6 6 3 4 1
32 34 37 39 44 44 41 40 38 36 33 29 24 19 17 16 15 11 6 7 6 1 3 12 5 9 9 10 8 7 9 12 12 19 10 6 6 8 10 5 3 5 2
40 43 48 48 46 46 45 42 43 42 33 31 29 24 21 22 18 14 13 7 8 4 4 6 14 8 7 5 3 3 5 10 11 15 9 6 6 4 8 10 2 3 3
38 41 50 56 55 48 43 40 38 40 38 32 33 26 25 18 11 12 12 8 11 7 5 4 15 8 8 6 3 1 4 6 10 12 11 14 11 3 2 8 5 8 3
60 45 55 58 55 52 48 43 41 39 38 34 31 26 25 19 17 13 12 11 12 13 8 5 7 15 9 4 1 5 4 5 7 9 12 15 13 10 6 5 6 8 9
51 52 57 61 58 55 53 48 45 43 40 38 34 31 28 22 23 18 15 13 9 14 12 10 8 11 9 5 5 4 4 6 6 7 9 12 12 8 8 11 12 6 4
46 48 60 65 67 65 60 53 50 47 46 45 39 34 27 27 19 19 20 17 12 11 13 15 12 12 9 10 11 11 8 5 2 5 6 8 9 11 12 13 13 12 8
52 56 58 63 62 67 67 60 53 50 48 46 45 40 31 32 28 23 21 20 18 13 11 10 14 13 9 7 8 7 4 7 5 5 8 7 6 7 9 11 12 10 10
42 60 59 70 65 67 73 65 60 53 49 48 43 46 39 34 34 31 30 25 18 19 17 14 15 16 16 16 13 12 8 6 9 10 7 7 9 6 9 9 9 7 5
22 40 58 67 69 65 65 61 66 63 51 48 42 40 43 37 32 34 29 29 21 23 23 21 19 16 17 20 18 21 17 14 11 12 13 14 15 9 10 7 6 9 7
18 31 46 65 72 78 72 63 67 66 63 51 44 40 35 35 33 39 36 31 28 26 25 22 20 19 21 22 17 17 15 18 17 15 17 16 15 15 12 7 6 6 6
22 28 39 47 73 79 72 69 64 69 65 56 48 42 40 37 33 38 40 36 32 29 28 28 28 23 23 23 17 17 19 18 21 20 20 19 20 18 18 16 10 10 8
16 19 31 43 53 70 67 68 63 62 61 60 54 51 46 42 37 32 37 39 38 33 30 28 24 21 22 21 22 22 29 28 29 28 27 21 20 23 24 20 17 18 17
10 13 21 32 43 55 66 68 59 60 53 50 56 58 55 48 44 36 34 36 37 39 39 37 31 27 26 27 29 30 32 31 30 27 27 24 24 21 24 22 21 16 17
6 9 15 24 33 40 52 67 61 56 51 47 47 48 50 49 48 44 41 39 40 40 42 39 34 31 31 31 31 29 28 27 27 26 27 26 23 20 22 20 16 13 17
6 11 14 20 26 31 40 55 61 47 44 39 39 37 38 42 44 48 46 43 42 41 41 40 39 41 41 39 34 32 32 31 25 25 26 25 20 20 21 26 28 25 26
9 7 5 12 17 24 34 41 47 42 37 33 32 33 37 37 37 42 46 44 42 41 37 34 33 32 33 32 33 33 31 26 22 19 20 20 21 21 23 26 28 24 26
10 5 3 3 13 19 24 32 37 36 34 33 33 30 27 35 34 34 34 35 37 37 36 36 34 34 36 32 26 21 18 16 13 14 15 16 15 14 18 19 18 16 15
13 17 13 7 2 15 28 29 31 36 36 36 36 37 34 28 27 24 26 22 22 25 23 24 23 18 18 18 22 23 24 22 18 18 16 13 12 14 18 22 20 16 12
20 20 14 15 18 9 9 21 20 19 25 28 33 32 31 28 28 29 31 23 18 14 17 19 17 17 23 26 33 33 33 32 31 31 30 31 33 30 17 10 10 12 9
23 19 20 18 22 26 31 31 28 30 28 15 26 32 36 33 30 27 26 23 22 22 21 22 19 21 22 20 21 19 16 18 20 19 17 17 16 17 14 10 8 7 7
18 15 16 18 15 22 22 41 40 35 23 20 31 26 20 16 32 21 22 21 19 26 23 19 14 14 13 14 16 16 9 8 9 9 9 12 13 16 14 14 14 17 18
25 15 10 12 23 27 27 20 5 14 13 16 19 18 14 14 15 16 22 25 17 16 14 12 10 8 8 7 8 7 7 9 6 3 4 4 6 6 7 12 11 4 6
18 20 17 22 26 22 25 22 17 16 18 24 26 27 27 29 27 27 25 25 26 23 19 16 15 14 14 14 15 14 13 10 8 8 8 9 11 11 13 15 16 15 16
18 20 23 32 35 30 30 27 23 20 19 22 23 23 25 23 25 29 29 25 22 23 23 20 16 16 18 19 21 19 20 19 19 18 19 21 19 17 19 17 16 17 18
20 22 22 27 29 29 27 24 21 16 17 25 30 28 27 26 24 24 26 25 24 23 20 17 17 19 20 22 22 20 20 21 23 22 23 24 22 21 19 17 18 20 21
Wind_Direction_500mb
216 216 211 208 202 200 197 190 194 193 190 189 184 185 195 196 195 182 231 183 194 210 299 187 194 228 247 249 291 336 347 351 357 4 31 43 39 41 47 302 265 262 177
220 225 226 216 215 212 210 207 202 201 198 197 198 203 207 193 189 201 205 180 163 161 134 175 203 202 232 241 270 329 358 3 30 23 42 26 14 310 333 354 230 238 252
219 221 223 222 218 217 213 216 211 209 210 207 212 214 207 207 219 215 209 175 179 151 88 192 202 197 182 192 232 333 345 11 17 26 41 26 29 346 346 7 154 286 307
225 218 219 218 218 211 214 211 214 213 215 212 209 221 206 206 227 196 191 205 197 169 130 117 181 161 161 137 111 316 359 2 22 24 48 50 46 51 20 42 33 49 65
221 220 218 220 216 216 212 211 211 216 216 214 210 205 212 227 236 214 212 213 203 195 174 161 159 191 159 166 77 34 0 327 358 5 23 30 25 29 73 85 41 30 77
222 225 225 223 220 219 218 215 215 217 218 218 215 218 222 221 226 229 229 219 204 202 195 184 182 187 198 231 272 298 326 331 334 353 14 22 40 17 27 41 35 41 339
219 220 220 216 216 220 221 215 217 218 221 223 224 221 233 226 224 238 240 223 221 212 214 215 226 226 235 265 266 265 289 334 301 350 8 11 25 31 36 32 20 30 24
221 220 222 220 223 220 221 221 218 219 222 225 228 226 230 233 233 235 228 232 237 215 211 208 210 216 236 293 294 271 301 268 281 308 340 343 317 337 335 2 25 18 46
229 224 219 219 224 224 221 222 223 219 223 227 232 231 228 235 236 235 243 238 239 226 221 233 233 248 257 267 267 269 284 301 291 291 307 328 327 314 323 332 330 334 345
233 227 221 222 218 219 218 224 227 225 223 223 227 227 227 233 239 237 237 231 238 235 241 251 254 269 269 256 261 260 273 267 297 311 299 299 278 286 306 311 330 329 317
261 231 223 221 219 218 225 228 230 225 222 223 226 223 225 234 237 234 242 244 244 243 243 245 243 269 277 248 242 261 273 280 286 294 303 294 282 277 272 280 308 314 325
283 248 230 224 223 226 232 230 230 223 222 220 221 230 228 232 240 238 238 244 252 251 251 249 254 262 257 249 255 270 274 281 288 289 300 288 278 270 278 272 276 304 304
308 262 226 222 225 227 228 227 227 219 227 230 227 230 234 235 238 246 240 241 245 244 244 241 244 253 257 261 260 265 278 281 284 284 283 285 279 273 278 280 276 281 300
304 266 237 228 228 229 227 226 223 214 232 229 231 230 230 234 236 242 243 239 238 235 241 249 256 258 256 259 260 273 282 286 284 282 278 270 274 286 275 274 269 275 295
272 250 235 228 228 227 229 225 219 227 230 222 229 227 231 236 238 237 243 239 235 237 242 244 247 247 250 259 268 272 276 283 282 281 275 277 271 281 279 266 261 279 292
290 256 248 247 228 231 231 222 223 226 221 230 220 221 228 233 234 240 241 242 239 237 242 246 249 250 254 262 264 269 272 281 278 277 269 264 263 268 272 269 268 276 280
333 280 257 271 239 225 216 205 204 220 218 216 220 226 217 220 226 231 237 243 241 241 241 243 247 254 258 260 265 268 268 267 268 272 262 248 260 265 271 280 289 279 273
346 168 118 60 188 195 211 215 207 214 221 226 228 234 223 223 230 233 239 246 246 239 236 238 244 254 258 250 238 241 247 252 260 271 258 252 252 258 260 269 280 280 285
93 105 99 85 193 233 230 224 221 229 227 228 230 232 228 225 221 214 219 203 197 199 212 213 196 195 197 217 239 255 272 279 260 246 244 248 262 276 269 265 266 259 257
126 118 101 75 53 57 133 194 206 216 228 223 221 226 217 206 212 221 222 220 204 189 191 200 205 226 236 245 251 258 258 260 262 261 263 269 274 276 257 254 247 238 234
124 143 125 98 71 69 106 106 102 111 100 120 216 220 208 205 204 209 213 208 215 219 213 220 221 229 237 238 237 235 248 263 266 262 267 267 244 211 201 201 211 223 250
126 148 138 149 141 109 112 119 122 115 83 73 87 82 128 184 184 176 182 193 213 212 214 179 202 219 225 237 236 235 238 256 244 231 238 243 255 262 254 251 256 248 229
171 228 280 194 166 172 178 190 143 114 124 148 134 150 134 145 144 153 157 158 154 147 138 134 129 127 142 161 191 197 195 199 209 214 250 253 254 275 241 204 196 180 139
165 206 154 126 125 159 179 185 131 114 110 110 111 109 116 116 117 119 130 133 136 133 125 117 112 109 107 114 116 131 139 142 161 166 148 116 105 113 119 127 121 118 118
166 156 126 116 115 115 112 118 117 109 114 114 112 113 117 118 122 127 129 129 127 132 128 121 117 112 114 109 108 113 118 123 122 119 119 121 120 116 113 116 116 116 112
159 149 139 130 125 125 124 119 113 112 125 124 120 121 122 125 126 128 131 132 132 133 132 125 120 123 118 110 104 101 103 105 102 106 107 109 109 114 113 113 114 115 114
Wind_Speed_850mb
26 27 29 33 36 38 39 37 34 30 29 26 24 23 19 18 11 11 3 6 7 4 6 11 6 11 10 9 4 9 16 15 17 14 10 9 7 9 6 6 3 4 1
32 34 37 39 44 44 41 40 38 36 33 29 24 19 17 16 15 11 6 7 6 1 3 12 5 9 9 10 8 7 9 12 12 19 10 6 6 8 10 5 3 5 2
40 43 48 48 46 46 45 42 43 42 33 31 29 24 21 22 18 14 13 7 8 4 4 6 14 8 7 5 3 3 5 10 11 15 9 6 6 4 8 10 2 3 3
38 41 50 56 55 48 43 40 38 40 38 32 33 26 25 18 11 12 12 8 11 7 5 4 15 8 8 6 3 1 4 6 10 12 11 14 11 3 2 8 5 8 3
60 45 55 58 55 52 48 43 41 39 38 34 31 26 25 19 17 13 12 11 12 13 8 5 7 15 9 4 1 5 4 5 7 9 12 15 13 10 6 5 6 8 9
51 52 57 61 58 55 53 48 45 43 40 38 34 31 28 22 23 18 15 13 9 14 12 10 8 11 9 5 5 4 4 6 6 7 9 12 12 8 8 11 12 6 4
46 48 60 65 67 65 60 53 50 47 46 45 39 34 27 27 19 19 20 17 12 11 13 15 12 12 9 10 11 11 8 5 2 5 6 8 9 11 12 13 13 12 8
52 56 58 63 62 67 67 60 53 50 48 46 45 40 31 32 28 23 21 20 18 13 11 10 14 13 9 7 8 7 4 7 5 5 8 7 6 7 9 11 12 10 10
42 60 59 70 65 67 73 65 60 53 49 48 43 46 39 34 34 31 30 25 18 19 17 14 15 16 16 16 13 12 8 6 9 10 7 7 9 6 9 9 9 7 5
22 40 58 67 69 65 65 61 66 63 51 48 42 40 43 37 32 34 29 29 21 23 23 21 19 16 17 20 18 21 17 14 11 12 13 14 15 9 10 7 6 9 7
18 31 46 65 72 78 72 63 67 66 63 51 44 40 35 35 33 39 36 31 28 26 25 22 20 19 21 22 17 17 15 18 17 15 17 16 15 15 12 7 6 6 6
22 28 39 47 73 79 72 69 64 69 65 56 48 42 40 37 33 38 40 36 32 29 28 28 28 23 23 23 17 17 19 18 21 20 20 19 20 18 18 16 10 10 8
16 19 31 43 53 70 67 68 63 62 61 60 54 51 46 42 37 32 37 39 38 33 30 28 24 21 22 21 22 22 29 28 29 28 27 21 20 23 24 20 17 18 17
10 13 21 32 43 55 66 68 59 60 53 50 56 58 55 48 44 36 34 36 37 39 39 37 31 27 26 27 29 30 32 31 30 27 27 24 24 21 24 22 21 16 17
6 9 15 24 33 40 52 67 61 56 51 47 47 48 50 49 48 44 41 39 40 40 42 39 34 31 31 31 31 29 28 27 27 26 27 26 23 20 22 20 16 13 17
6 11 14 20 26 31 40 55 61 47 44 39 39 37 38 42 44 48 46 43 42 41 41 40 39 41 41 39 34 32 32 31 25 25 26 25 20 20 21 26 28 25 26
9 7 5 12 17 24 34 41 47 42 37 33 32 33 37 37 37 42 46 44 42 41 37 34 33 32 33 32 33 33 31 26 22 19 20 20 21 21 23 26 28 24 26
10 5 3 3 13 19 24 32 37 36 34 33 33 30 27 35 34 34 34 35 37 37 36 36 34 34 36 32 26 21 18 16 13 14 15 16 15 14 18 19 18 16 15
13 17 13 7 2 15 28 29 31 36 36 36 36 37 34 28 27 24 26 22 22 25 23 24 23 18 18 18 22 23 24 22 18 18 16 13 12 14 18 22 20 16 12
20 20 14 15 18 9 9 21 20 19 25 28 33 32 31 28 28 29 31 23 18 14 17 19 17 17 23 26 33 33 33 32 31 31 30 31 33 30 17 10 10 12 9
23 19 20 18 22 26 31 31 28 30 28 15 26 32 36 33 30 27 26 23 22 22 21 22 19 21 22 20 21 19 16 18 20 19 17 17 16 17 14 10 8 7 7
18 15 16 18 15 22 22 41 40 35 23 20 31 26 20 16 32 21 22 21 19 26 23 19 14 14 13 14 16 16 9 8 9 9 9 12 13 16 14 14 14 17 18
25 15 10 12 23 27 27 20 5 14 13 16 19 18 14 14 15 16 22 25 17 16 14 12 10 8 8 7 8 7 7 9 6 3 4 4 6 6 7 12 11 4 6
18 20 17 22 26 22 25 22 17 16 18 24 26 27 27 29 27 27 25 25 26 23 19 16 15 14 14 14 15 14 13 10 8 8 8 9 11 11 13 15 16 15 16
18 20 23 32 35 30 30 27 23 20 19 22 23 23 25 23 25 29 29 25 22 23 23 20 16 16 18 19 21 19 20 19 19 18 19 21 19 17 19 17 16 17 18
20 22 22 27 29 29 27 24 21 16 17 25 30 28 27 26 24 24 26 25 24 23 20 17 17 19 20 22 22 20 20 21 23 22 23 24 22 21 19 17 18 20 21
Wind_Direction_850mb
216 216 211 208 202 200 197 190 194 193 190 189 184 185 195 196 195 182 231 183 194 210 299 187 194 228 247 249 291 336 347 351 357 4 31 43 39 41 47 302 265 262 177
220 225 226 216 215 212 210 207 202 201 198 197 198 203 207 193 189 201 205 180 163 161 134 175 203 202 232 241 270 329 358 3 30 23 42 26 14 310 333 354 230 238 252
219 221 223 222 218 217 213 216 211 209 210 207 212 214 207 207 219 215 209 175 179 151 88 192 202 197 182 192 232 333 345 11 17 26 41 26 29 346 346 7 154 286 307
225 218 219 218 218 211 214 211 214 213 215 212 209 221 206 206 227 196 191 205 197 169 130 117 181 161 161 137 111 316 359 2 22 24 48 50 46 51 20 42 33 49 65
221 220 218 220 216 216 212 211 211 216 216 214 210 205 212 227 236 214 212 213 203 195 174 161 159 191 159 166 77 34 0 327 358 5 23 30 25 29 73 85 41 30 77
222 225 225 223 220 219 218 215 215 217 218 218 215 218 222 221 226 229 229 219 204 202 195 184 182 187 198 231 272 298 326 331 334 353 14 22 40 17 27 41 35 41 339
219 220 220 216 216 220 221 215 217 218 221 223 224 221 233 226 224 238 240 223 221 212 214 215 226 226 235 265 266 265 289 334 301 350 8 11 25 31 36 32 20 30 24
221 220 222 220 223 220 221 221 218 219 222 225 228 226 230 233 233 235 228 232 237 215 211 208 210 216 236 293 294 271 301 268 281 308 340 343 317 337 335 2 25 18 46
229 224 219 219 224 224 221 222 223 219 223 227 232 231 228 235 236 235 243 238 239 226 221 233 233 248 257 267 267 269 284 301 291 291 307 328 327 314 323 332 330 334 345
233 227 221 222 218 219 218 224 227 225 223 223 227 227 227 233 239 237 237 231 238 235 241 251 254 269 269 256 261 260 273 267 297 311 299 299 278 286 306 311 330 329 317
261 231 223 221 219 218 225 228 230 225 222 223 226 223 225 234 237 234 242 244 244 243 243 245 243 269 277 248 242 261 273 280 286 294 303 294 282 277 272 280 308 314 325
283 248 230 224 223 226 232 230 230 223 222 220 221 230 228 232 240 238 238 244 252 251 251 249 254 262 257 249 255 270 274 281 288 289 300 288 278 270 278 272 276 304 304
308 262 226 222 225 227 228 227 227 219 227 230 227 230 234 235 238 246 240 241 245 244 244 241 244 253 257 261 260 265 278 281 284 284 283 285 279 273 278 280 276 281 300
304 266 237 228 228 229 227 226 223 214 232 229 231 230 230 234 236 242 243 239 238 235 241 249 256 258 256 259 260 273 282 286 284 282 278 270 274 286 275 274 269 275 295
272 250 235 228 228 227 229 225 219 227 230 222 229 227 231 236 238 237 243 239 235 237 242 244 247 247 250 259 268 272 276 283 282 281 275 277 271 281 279 266 261 279 292
290 256 248 247 228 231 231 222 223 226 221 230 220 221 228 233 234 240 241 242 239 237 242 246 249 250 254 262 264 269 272 281 278 277 269 264 263 268 272 269 268 276 280
333 280 257 271 239 225 216 205 204 220 218 216 220 226 217 220 226 231 237 243 241 241 241 243 247 254 258 260 265 268 268 267 268 272 262 248 260 265 271 280 289 279 273
346 168 118 60 188 195 211 215 207 214 221 226 228 234 223 223 230 233 239 246 246 239 236 238 244 254 258 250 238 241 247 252 260 271 258 252 252 258 260 269 280 280 285
93 105 99 85 193 233 230 224 221 229 227 228 230 232 228 225 221 214 219 203 197 199 212 213 196 195 197 217 239 255 272 279 260 246 244 248 262 276 269 265 266 259 257
126 118 101 75 53 57 133 194 206 216 228 223 221 226 217 206 212 221 222 220 204 189 191 200 205 226 236 245 251 258 258 260 262 261 263 269 274 276 257 254 247 238 234
124 143 125 98 71 69 106 106 102 111 100 120 216 220 208 205 204 209 213 208 215 219 213 220 221 229 237 238 237 235 248 263 266 262 267 267 244 211 201 201 211 223 250
126 148 138 149 141 109 112 119 122 115 83 73 87 82 128 184 184 176 182 193 213 212 214 179 202 219 225 237 236 235 238 256 244 231 238 243 255 262 254 251 256 248 229
171 228 280 194 166 172 178 190 143 114 124 148 134 150 134 145 144 153 157 158 154 147 138 134 129 127 142 161 191 197 195 199 209 214 250 253 254 275 241 204 196 180 139
165 206 154 126 125 159 179 185 131 114 110 110 111 109 116 116 117 119 130 133 136 133 125 117 112 109 107 114 116 131 139 142 161 166 148 116 105 113 119 127 121 118 118
166 156 126 116 115 115 112 118 117 109 114 114 112 113 117 118 122 127 129 129 127 132 128 121 117 112 114 109 108 113 118 123 122 119 119 121 120 116 113 116 116 116 112
159 149 139 130 125 125 124 119 113 112 125 124 120 121 122 125 126 128 131 132 132 133 132 125 120 123 118 110 104 101 103 105 102 106 107 109 109 114 113 113 114 115 114